RH
26 24 20 23 28 31 39 45 46 47 43 34 37 53 64 62 67 76 70 65 73 64 41 36 41 40 43 45 44 45 46 41 38 36 35 34 33 35 34 30 31 31 30 31 29 32 34 29 32 40 40 42 44 42 45 45 38 35 31 31 36 34 30 32 31 24 21 25 27 26 27 26 25 27 27 25 23 23 27 29 27 25 22 24 24 24 47
26 23 22 27 33 39 47 48 48 51 49 43 48 63 67 64 72 78 70 70 73 57 37 33 38 43 47 45 41 42 43 42 39 36 34 34 35 37 35 31 32 32 32 33 31 33 39 35 34 40 42 44 45 43 45 44 40 42 44 43 42 38 33 34 37 34 31 33 33 31 30 29 30 36 39 35 30 30 30 28 27 27 25 25 24 28 53
23 22 25 32 39 48 52 49 50 54 52 50 56 69 70 62 67 73 71 75 71 55 46 40 37 44 50 46 43 44 42 41 41 39 36 34 35 37 35 32 32 31 31 33 31 32 39 40 36 37 41 43 44 44 44 42 43 54 62 54 44 45 48 43 40 43 44 45 47 43 36 33 34 40 44 44 41 41 38 29 24 26 27 25 21 31 61
22 25 30 37 46 55 54 50 54 55 50 51 61 72 69 56 57 63 66 70 63 54 55 48 38 42 47 45 44 43 40 40 40 39 37 34 35 35 33 31 33 33 32 35 35 30 33 37 35 36 40 40 41 48 50 47 48 55 62 57 45 47 58 59 55 54 50 52 56 50 39 37 42 45 48 51 52 53 47 33 28 34 33 28 26 37 66
25 29 35 43 53 60 54 50 57 58 50 52 66 73 62 48 48 52 54 56 50 44 45 43 39 43 44 43 45 42 40 39 39 39 37 35 36 36 32 31 34 38 39 42 41 33 30 35 37 39 40 35 36 45 53 59 61 53 49 52 51 51 56 62 69 69 59 53 51 45 41 43 49 54 56 55 56 58 52 41 43 48 39 35 41 46 58
29 32 39 48 57 61 54 49 58 63 58 59 68 69 56 47 49 52 50 47 40 37 40 40 41 43 42 44 47 43 38 40 42 40 35 34 35 37 39 36 33 35 39 42 43 39 36 39 43 43 41 39 38 42 49 57 60 53 44 45 55 64 62 58 66 74 69 58 48 43 44 47 51 58 63 60 59 62 62 57 59 60 51 50 59 61 65
30 35 42 52 60 60 53 49 54 63 67 67 68 62 52 48 50 52 52 46 41 44 48 44 41 43 44 44 45 43 40 40 40 36 37 39 35 35 43 41 32 31 34 36 43 46 43 46 50 48 49 51 47 46 49 45 42 51 53 47 53 67 65 56 59 70 72 65 56 48 47 52 57 60 61 61 61 64 66 66 65 63 60 61 69 81 92
32 37 44 54 60 58 55 51 48 56 66 67 64 60 54 50 48 48 48 45 44 49 49 42 37 38 42 41 41 41 40 39 37 35 39 44 38 34 39 39 32 32 34 35 42 46 45 50 53 49 51 53 47 50 57 47 42 58 70 66 62 62 62 60 56 60 68 66 59 53 49 54 62 64 63 63 65 68 71 75 76 67 62 66 73 89 100
33 37 46 56 59 55 56 54 47 51 61 61 60 60 54 48 45 44 40 40 45 46 41 36 33 31 34 39 41 41 38 37 39 37 35 37 36 33 33 34 34 36 39 38 39 39 40 45 46 42 44 45 39 43 50 45 48 63 76 84 82 69 67 70 59 55 66 66 58 58 57 55 61 71 78 77 75 79 80 82 84 79 74 75 72 78 89
33 39 47 56 58 55 56 56 50 50 53 55 62 64 54 47 46 42 36 38 44 41 34 32 31 32 37 43 46 44 37 32 35 38 34 30 31 31 31 35 36 36 41 43 40 40 42 42 41 39 38 37 36 39 41 38 40 50 64 80 86 75 68 69 61 61 70 66 56 58 62 65 73 84 91 90 86 86 85 84 86 87 85 79 72 75 85
33 40 47 55 57 53 55 55 53 52 49 51 61 65 58 54 55 46 35 36 40 37 30 29 32 38 42 42 41 41 37 32 32 37 35 31 33 34 34 35 33 34 41 43 39 41 43 43 42 41 38 38 40 41 44 44 42 45 52 61 72 73 67 67 69 70 72 71 63 59 63 75 88 89 85 88 91 91 93 93 89 87 85 80 77 81 83
33 40 48 56 55 51 53 53 51 51 50 51 56 57 54 54 53 45 33 32 38 36 31 32 38 42 40 37 36 35 34 32 32 36 39 39 39 38 34 34 35 36 40 40 37 40 44 44 42 41 41 41 40 37 40 44 46 48 49 51 61 68 63 62 65 60 62 71 70 69 76 85 90 85 75 77 86 89 94 96 90 85 83 81 82 83 81
34 40 48 56 54 51 52 49 48 48 47 47 50 54 55 51 47 43 33 29 34 36 33 35 38 38 37 37 38 35 32 33 35 40 44 44 42 38 34 35 37 38 40 40 40 41 44 46 44 43 43 41 40 40 41 44 46 47 48 52 61 63 55 52 55 54 57 64 62 72 87 84 79 82 79 78 83 87 91 94 94 92 85 79 84 87 84
34 40 49 56 54 53 51 46 44 44 43 43 42 45 49 45 40 40 35 30 35 39 37 35 34 36 39 38 35 31 30 32 36 42 46 48 45 39 35 35 36 39 40 41 43 41 42 49 51 48 48 49 52 52 47 46 48 48 48 50 53 57 52 46 50 54 55 59 66 80 90 84 80 85 85 84 89 91 91 93 97 98 89 80 84 88 87
33 40 49 55 54 53 51 46 40 36 34 32 28 28 31 30 29 32 33 31 34 36 35 33 34 36 36 34 32 30 28 29 32 37 42 46 44 37 35 36 36 40 42 41 41 41 43 53 59 54 51 53 57 56 47 43 46 49 55 55 48 50 52 47 49 53 49 53 68 79 84 87 88 86 80 81 87 90 92 94 96 98 95 88 87 89 90
32 40 49 55 54 51 49 46 40 32 27 24 22 20 19 20 21 24 29 31 30 30 32 35 39 37 31 31 35 34 31 28 29 30 31 34 35 30 33 38 38 41 45 41 38 39 43 51 57 57 54 49 51 57 53 48 47 48 54 56 48 46 49 42 44 50 48 50 62 73 82 90 89 81 75 78 84 90 95 96 94 96 97 93 89 89 89
31 40 50 55 54 50 46 44 41 34 27 23 23 22 20 21 21 22 28 32 29 29 33 38 42 38 30 30 34 36 36 35 34 34 30 29 29 27 33 40 41 42 44 40 37 40 43 47 49 52 56 52 50 55 54 54 57 54 52 53 50 48 48 43 45 53 54 56 66 77 85 89 83 76 72 74 84 93 95 93 92 96 97 93 90 90 88
28 39 51 56 55 50 44 42 40 36 29 26 26 25 23 22 20 22 29 31 28 31 35 38 41 37 31 33 36 37 40 40 38 36 31 27 28 29 33 38 38 39 40 37 37 43 50 55 54 53 56 53 49 51 53 58 64 63 59 60 58 56 54 48 49 55 57 61 71 81 86 84 79 74 70 75 87 92 89 89 94 98 97 93 92 92 90
24 36 50 55 54 49 43 39 38 36 32 29 27 25 23 22 19 22 29 30 29 32 36 37 39 38 37 40 40 39 41 42 39 35 30 30 34 35 36 38 37 37 35 35 40 47 54 60 60 55 54 53 49 50 54 60 61 58 58 60 61 64 64 56 51 51 52 55 62 73 83 82 77 74 71 74 84 89 88 90 93 95 95 91 92 93 92
22 34 47 53 54 52 45 38 35 35 32 27 25 26 25 23 20 22 29 32 31 33 36 37 37 37 38 40 39 38 39 40 37 32 29 32 38 39 38 39 39 36 33 38 48 50 50 54 57 55 54 53 50 49 51 54 52 48 51 56 60 63 63 60 61 57 49 50 60 75 84 80 75 76 75 75 83 92 96 96 94 95 95 92 93 97 97
22 31 41 46 48 45 36 29 30 35 33 26 25 30 31 26 23 25 30 34 33 31 34 36 35 36 37 38 38 38 37 36 36 34 32 34 38 41 40 37 37 36 34 38 44 44 42 45 49 49 48 46 46 46 47 49 49 45 44 51 60 63 56 56 66 65 58 64 77 86 86 77 73 80 85 88 96 99 98 98 98 98 98 97 98 100 99
19 23 27 29 29 26 20 18 24 35 35 27 26 32 33 29 27 27 29 33 34 33 34 36 37 37 36 33 30 30 29 29 30 31 34 36 36 38 41 39 38 42 41 37 36 35 36 39 42 44 44 41 42 43 43 44 48 48 45 47 59 66 59 56 66 68 66 73 79 77 72 69 70 78 85 93 100 98 95 98 100 100 100 100 100 101 100
16 17 18 17 17 17 16 15 19 29 35 32 29 30 31 30 29 30 31 34 35 35 36 37 36 36 36 30 25 23 22 23 23 24 31 36 33 32 38 40 40 45 48 45 40 35 33 36 38 40 43 43 39 39 42 44 44 46 48 49 53 59 56 54 60 61 61 67 68 63 64 68 70 76 81 89 96 98 96 99 100 99 100 100 100 100 97
14 14 13 14 15 15 15 15 15 21 31 35 31 28 29 29 28 31 35 35 35 35 36 36 35 35 36 31 25 22 20 21 21 19 23 31 33 32 35 38 42 47 46 43 42 37 33 35 34 36 44 45 37 34 42 46 42 40 42 44 45 47 46 47 50 52 58 66 65 59 61 66 67 70 75 82 92 98 99 100 100 100 101 100 99 97 91
16 13 13 14 15 15 16 16 16 18 26 34 35 33 30 27 28 32 34 34 33 32 32 35 36 35 34 30 25 24 21 19 20 18 17 24 31 33 32 33 38 42 37 36 40 35 29 31 31 33 44 47 38 35 40 44 41 37 36 40 44 44 41 40 43 48 55 61 59 55 60 64 62 62 67 74 85 96 99 99 99 97 96 95 90 87 86
17 15 15 14 15 16 16 16 17 19 23 31 37 37 30 26 28 32 32 32 33 32 31 35 36 35 34 31 26 24 22 20 20 19 17 21 27 30 31 31 33 34 33 38 41 35 29 30 29 31 40 43 39 37 38 37 37 37 40 45 46 43 41 40 42 47 51 52 52 52 56 60 59 60 64 68 76 86 90 93 93 88 86 88 87 83 83
17 16 15 15 16 18 17 18 23 26 25 28 36 38 33 30 30 31 30 32 34 33 31 32 34 35 36 33 29 25 23 22 22 19 18 22 26 30 34 38 39 38 36 37 37 32 31 34 33 35 41 42 39 37 36 33 32 36 45 48 42 41 43 38 36 43 49 49 50 51 52 55 58 60 62 66 70 75 78 82 86 82 76 74 78 83 84
17 16 16 17 18 19 18 21 29 34 31 29 34 36 35 37 36 31 28 31 34 33 30 30 34 37 38 36 33 29 23 24 27 25 22 22 24 27 30 34 38 40 36 33 31 28 28 32 33 34 37 38 38 36 34 32 34 40 48 49 46 52 54 41 35 44 50 48 50 51 50 52 57 61 63 65 66 68 70 74 79 79 74 66 64 71 78
17 16 16 18 20 21 19 20 28 37 35 33 37 40 39 41 39 32 28 31 33 33 31 31 33 36 37 37 37 32 26 26 29 29 28 26 25 26 28 30 35 39 35 31 30 28 28 32 35 36 39 42 40 34 32 36 42 45 49 50 53 61 62 52 46 48 48 49 53 54 52 54 58 63 65 64 61 60 62 67 71 73 74 72 69 70 75
18 17 17 19 21 23 21 19 27 36 35 35 42 44 40 40 40 33 30 31 32 32 30 29 32 36 38 38 37 33 30 29 27 26 27 28 29 31 34 34 36 37 33 30 30 30 28 31 37 42 45 45 39 29 29 38 42 42 44 46 48 50 54 57 56 52 51 56 60 57 55 56 57 60 63 65 63 60 59 61 63 65 66 67 69 70 72
20 18 19 22 23 25 22 19 27 35 35 38 47 46 39 40 40 34 30 30 31 31 29 28 32 35 34 34 34 31 29 28 26 25 29 32 32 33 34 34 35 34 31 30 31 31 29 30 35 39 40 39 35 28 28 36 41 41 42 46 46 45 48 54 58 56 56 59 58 54 53 53 52 54 56 58 59 60 61 60 58 57 59 61 61 63 66
22 20 22 24 25 26 22 20 29 38 38 39 44 43 40 41 38 32 29 29 30 31 29 28 32 32 29 32 35 30 26 27 28 28 32 35 36 34 32 34 36 34 32 32 30 31 33 33 33 35 36 35 31 26 28 37 45 44 43 46 49 50 49 51 54 55 55 55 52 47 45 47 50 52 53 53 54 55 57 57 53 50 53 57 57 58 60
24 23 25 27 26 25 21 21 33 44 43 37 35 35 38 40 36 31 30 29 30 32 29 29 32 30 29 35 37 31 28 31 30 26 27 31 34 34 32 34 34 32 33 34 31 32 35 32 27 31 36 33 29 29 35 41 44 43 43 46 50 51 51 53 53 51 51 53 52 46 43 48 55 56 54 56 56 54 52 52 51 49 51 52 52 54 56
27 26 27 27 25 23 21 23 34 46 47 40 34 33 38 41 38 33 31 30 30 30 29 30 31 28 29 34 34 29 31 32 29 24 24 27 30 30 28 29 30 30 34 36 33 30 33 31 26 28 31 29 30 37 42 42 40 40 43 45 46 46 46 47 47 47 49 52 51 49 50 55 57 56 55 55 55 53 52 51 50 49 48 47 49 52 55
28 27 27 27 25 25 25 29 38 49 51 44 36 34 39 43 40 33 31 32 31 28 28 30 30 27 29 32 31 29 32 34 32 30 29 27 28 29 26 24 27 31 36 37 31 25 29 34 32 28 27 30 36 41 41 38 37 39 41 41 41 40 37 37 39 44 49 53 51 50 53 54 52 51 53 52 50 50 50 50 51 49 45 44 48 52 53
28 28 28 29 32 39 45 46 47 51 52 45 37 33 38 44 42 34 31 33 31 29 29 28 26 26 28 29 30 31 33 33 33 33 31 28 28 29 26 23 28 36 37 32 26 24 30 36 33 26 27 35 41 42 42 40 38 38 39 41 42 41 39 39 40 42 48 54 55 53 52 50 47 48 49 50 51 51 50 50 51 49 45 44 48 50 51
29 30 34 40 46 55 63 57 46 43 45 42 36 33 37 42 40 35 33 32 30 30 32 29 27 30 32 30 28 31 33 31 29 28 28 27 27 27 26 25 30 37 34 27 27 31 35 35 32 30 34 40 44 46 47 46 44 43 43 43 43 42 41 41 42 42 45 49 51 50 47 43 44 46 46 46 49 51 50 49 50 49 46 45 46 49 51
29 34 45 56 58 60 62 54 39 34 37 38 36 37 39 40 36 34 34 33 31 32 35 32 30 34 36 32 31 34 34 30 27 25 27 29 28 26 26 28 32 34 30 28 33 39 36 30 31 36 41 45 47 49 50 48 47 48 47 44 44 44 43 43 44 44 41 39 40 42 41 38 38 41 42 43 46 48 48 49 50 49 47 46 47 49 51
33 45 55 61 60 58 54 44 33 31 36 38 37 37 37 35 33 33 34 34 31 32 35 35 35 39 37 31 32 37 35 30 25 23 26 32 32 27 25 28 30 30 28 29 34 37 35 31 31 36 40 42 43 47 49 48 47 49 47 45 45 45 45 46 47 45 43 43 44 45 44 42 42 43 44 44 45 46 49 51 50 48 48 49 48 49 50
47 59 60 58 56 50 42 34 31 36 40 38 35 33 32 31 33 34 34 32 31 33 36 37 39 43 41 35 32 34 34 34 31 25 24 32 35 29 25 28 29 29 30 32 33 33 32 32 33 36 38 39 40 44 47 46 46 48 49 49 48 48 48 50 49 47 47 50 50 49 50 50 49 48 47 46 45 46 48 50 49 50 51 50 47 47 50
61 63 58 53 47 40 35 35 38 40 38 33 31 32 32 33 36 36 33 31 32 36 40 39 36 37 39 37 33 33 33 35 35 29 26 31 34 30 27 30 31 30 31 34 32 29 29 31 33 35 35 37 40 44 45 44 45 48 51 51 51 51 50 51 51 50 51 51 50 50 52 53 51 49 48 47 47 48 49 50 51 52 52 50 48 48 48
60 55 51 47 41 38 39 40 39 36 32 30 33 35 34 33 36 35 32 32 34 36 39 41 38 35 35 38 39 37 34 34 33 28 26 30 34 32 29 28 29 31 35 36 32 28 28 33 36 35 35 38 42 44 43 43 44 48 51 53 54 54 53 51 50 51 52 51 51 52 52 52 52 51 50 50 50 50 51 52 53 52 52 52 50 46 44
53 48 47 46 43 42 41 37 33 33 32 31 36 41 40 35 34 32 32 35 37 37 39 43 41 36 36 39 39 36 34 35 34 28 27 31 33 31 28 28 30 34 38 36 31 29 31 33 33 32 35 41 44 43 43 44 46 49 52 54 54 55 56 55 54 54 55 55 56 56 55 55 55 54 53 53 54 53 52 52 51 50 50 50 48 44 44
51 48 47 45 42 39 37 35 34 36 36 33 35 41 43 41 36 32 31 34 36 37 39 40 37 33 36 40 38 35 34 34 32 30 32 34 32 29 30 34 36 37 37 34 31 31 32 31 29 32 37 42 44 44 45 46 46 47 51 54 56 57 58 57 56 56 56 56 56 56 55 54 53 53 53 54 55 54 52 51 49 48 49 50 49 47 45
51 49 46 45 41 37 37 38 36 34 33 31 29 30 33 33 31 31 33 37 37 36 38 38 34 33 37 39 37 34 32 31 31 32 33 31 31 33 36 35 34 34 36 35 35 36 35 32 32 36 39 41 43 45 46 46 47 48 50 53 55 56 57 56 56 56 56 57 57 57 54 52 51 51 52 54 55 53 51 51 51 50 50 50 51 50 47
51 46 40 41 43 39 37 37 34 30 28 27 25 23 25 26 28 32 38 41 38 35 37 37 34 32 35 37 35 34 32 30 32 36 34 31 35 40 39 36 35 37 40 41 40 38 34 31 32 36 38 40 43 46 46 45 48 51 51 51 52 55 57 57 57 57 57 58 59 58 56 55 54 54 55 57 57 56 55 53 51 51 51 51 50 51 49
48 42 35 36 40 38 34 32 34 34 33 31 30 30 33 34 36 38 42 43 40 37 39 41 38 35 36 36 34 33 30 29 34 39 36 34 38 41 38 35 37 39 42 45 43 35 30 30 34 38 41 43 44 45 46 46 49 52 53 54 55 57 58 58 57 56 58 60 59 56 55 56 58 59 58 58 59 60 61 59 54 51 52 53 52 52 51
44 40 34 33 34 33 31 32 35 38 41 41 40 41 40 39 39 40 43 44 43 40 39 38 35 34 36 36 34 32 30 30 37 41 36 34 39 44 41 40 40 37 36 37 34 28 28 34 40 42 43 44 44 44 45 48 52 54 56 57 58 59 60 60 60 60 62 63 60 56 54 57 60 61 61 61 61 61 63 63 60 57 56 57 56 54 54
41 38 35 35 35 33 35 37 36 36 40 44 45 43 39 38 41 44 45 45 44 42 40 37 33 33 35 35 33 32 31 32 36 39 36 36 41 43 42 44 46 41 32 29 28 28 32 39 42 44 45 45 45 46 48 50 54 56 57 57 60 61 63 63 64 65 67 67 64 62 62 63 62 61 61 62 63 63 64 65 64 62 62 63 61 59 58
42 39 37 38 38 37 39 40 36 34 38 42 43 40 37 38 44 47 46 45 45 42 39 36 34 34 36 36 35 36 36 34 34 36 37 38 38 38 40 43 43 35 28 27 30 35 39 42 43 46 47 47 47 49 51 53 56 59 59 60 61 62 64 66 67 68 70 71 69 66 67 67 65 64 64 65 66 66 67 67 66 65 65 66 65 63 62
44 41 40 40 40 38 38 37 34 33 35 36 37 37 37 40 43 43 43 44 42 36 32 33 34 34 36 39 40 41 41 37 34 35 38 37 34 35 38 38 32 27 28 34 37 38 40 41 43 44 47 49 50 52 53 55 58 60 60 62 63 64 66 68 68 68 71 73 71 69 70 71 69 68 67 69 70 70 68 66 65 67 68 68 66 65 64
42 41 43 46 46 43 40 36 35 36 37 38 41 44 45 44 42 40 39 39 37 32 32 34 34 33 36 41 41 39 41 43 44 43 40 37 35 34 33 31 28 29 34 39 41 41 42 44 46 47 49 50 51 54 57 58 59 60 61 63 64 64 66 68 69 70 72 71 70 72 74 73 69 65 64 66 70 72 69 65 65 68 70 68 66 65 65
Wind_Speed
7 6 5 5 5 6 7 8 8 5 3 2 5 6 8 7 5 7 9 6 2 2 2 3 2 1 2 1 0 1 1 1 1 1 3 4 3 3 3 3 4 2 1 3 4 3 4 3 1 2 1 4 6 7 6 3 5 4 2 3 3 1 4 6 7 7 4 5 6 4 1 3 5 4 2 4 6 5 5 6 5 4 6 5 6 6 1
6 5 5 4 5 7 8 8 7 5 2 3 6 6 7 7 8 8 8 6 2 2 1 2 2 3 3 1 2 2 1 1 1 1 1 1 2 3 3 2 2 2 1 4 5 4 3 2 0 1 1 3 6 7 7 3 1 2 3 1 3 3 5 6 6 7 7 6 6 6 5 5 4 2 1 2 5 5 5 6 6 6 7 7 7 4 2
5 5 4 3 5 7 8 8 7 3 3 5 8 8 8 9 8 6 7 4 1 1 2 2 1 3 3 2 3 2 3 1 2 1 1 1 1 2 2 1 2 3 3 4 4 3 2 2 1 1 0 2 4 7 9 8 7 9 9 2 6 3 2 5 7 8 8 7 5 4 4 5 3 3 3 3 3 4 5 5 7 7 7 8 8 3 3
4 4 3 3 5 8 8 8 6 3 5 7 11 11 9 7 5 4 6 4 1 2 2 1 0 2 2 2 2 1 3 4 1 1 0 2 1 1 2 2 3 3 4 4 4 2 2 3 2 1 1 1 2 5 7 8 13 16 9 2 6 2 1 2 5 5 3 2 2 3 3 3 4 3 4 4 4 3 5 5 5 5 5 7 6 4 7
3 3 2 3 5 8 8 7 5 2 6 9 12 11 6 5 4 3 4 4 2 3 2 1 1 1 1 1 2 1 2 3 2 1 1 2 1 1 2 2 1 1 3 3 3 3 2 2 1 2 3 2 1 3 6 6 13 16 7 2 3 3 4 5 4 3 4 5 4 3 3 2 4 4 4 5 6 3 4 4 2 4 5 5 2 6 10
3 2 1 3 5 7 7 5 3 3 9 12 12 8 4 2 3 3 3 3 2 2 2 2 3 2 1 0 1 1 2 2 2 1 1 1 0 2 1 2 2 3 4 3 3 3 2 1 2 2 4 4 1 2 7 5 7 11 7 2 1 3 4 7 7 2 2 3 3 3 4 6 7 7 7 7 7 5 2 2 5 6 2 2 1 4 8
3 2 1 3 5 6 6 4 1 4 9 12 10 5 3 3 4 4 3 1 3 5 4 3 4 3 1 1 1 1 2 2 2 1 1 2 1 2 0 2 3 3 2 3 2 2 2 1 3 4 5 4 2 0 4 5 8 11 8 6 4 2 3 7 9 6 4 3 2 2 4 7 9 8 8 7 6 6 6 6 7 6 3 3 4 8 10
4 2 1 3 5 5 5 3 1 4 7 10 8 5 5 4 4 5 5 4 6 6 4 3 3 2 1 1 2 1 1 2 2 1 1 1 1 2 1 2 2 3 3 3 1 2 2 1 3 6 5 2 3 3 1 2 8 8 4 5 7 4 2 5 8 7 6 5 4 3 4 7 10 10 9 8 5 6 6 7 6 5 2 5 6 8 7
4 2 0 2 4 5 5 3 2 3 6 8 6 5 5 5 6 8 7 4 4 4 3 2 2 2 1 1 2 1 1 3 3 0 1 1 2 3 3 2 1 1 2 3 1 2 2 3 4 7 6 3 4 3 1 2 3 4 2 1 4 4 1 1 6 6 5 5 7 6 4 5 8 10 12 10 7 6 5 6 6 6 4 2 4 4 4
5 3 1 2 4 5 5 3 2 3 5 6 4 4 5 6 7 9 7 3 2 3 3 2 2 2 3 2 1 1 2 3 3 0 2 1 1 3 3 3 2 1 1 2 4 4 4 5 7 7 5 3 3 3 3 3 2 1 1 2 1 1 1 2 5 4 5 6 7 6 4 3 2 6 9 8 7 7 5 4 6 9 7 3 1 3 5
5 4 1 2 4 5 5 3 2 3 4 5 4 4 6 7 7 7 6 3 3 3 3 2 1 2 3 2 2 1 0 1 3 2 1 2 1 2 2 3 4 2 3 4 5 6 5 4 4 3 1 2 1 1 1 1 1 2 2 1 1 2 4 3 2 2 4 6 6 6 4 2 2 3 7 7 5 8 7 4 7 8 7 4 4 6 7
6 4 2 1 4 5 6 5 4 3 4 5 5 6 7 8 7 6 6 3 3 3 3 1 3 3 3 2 1 1 2 2 3 3 3 2 1 1 2 3 4 2 3 4 7 6 2 2 3 4 5 5 5 8 9 7 5 2 2 2 1 3 5 3 2 1 3 6 5 5 2 1 3 2 7 7 3 7 7 3 6 8 5 4 6 7 7
7 5 3 1 3 5 6 7 6 5 6 6 6 6 6 7 6 4 4 3 3 2 1 3 4 3 3 2 2 2 3 4 3 3 5 4 3 3 3 3 3 3 4 7 7 3 3 3 4 5 6 6 5 6 11 13 10 6 3 1 3 3 4 3 2 0 3 5 3 2 4 4 3 3 7 8 3 6 6 0 5 9 6 2 6 7 8
7 6 4 2 3 4 6 8 8 8 8 8 8 6 6 7 6 4 3 2 3 3 1 3 5 3 2 0 3 4 4 4 4 4 4 4 4 4 2 2 4 5 6 5 3 3 3 2 3 5 6 5 5 5 7 10 11 11 8 4 3 5 4 3 3 1 1 3 4 4 6 5 5 4 6 7 3 4 4 1 3 7 7 2 6 8 9
8 7 5 2 2 4 6 8 9 10 10 9 9 7 6 5 5 4 3 2 4 4 1 0 2 2 1 0 2 3 3 3 3 3 4 3 4 4 2 3 5 5 3 3 3 3 3 2 3 5 6 5 4 4 4 4 6 9 10 8 5 5 5 4 2 2 2 3 6 4 4 4 6 7 7 7 5 4 3 3 1 5 6 3 5 8 9
9 8 6 3 2 3 5 7 8 9 10 10 10 8 6 4 5 6 5 3 4 4 2 3 2 2 2 2 1 1 1 0 1 2 4 5 3 2 1 3 4 2 3 5 3 2 3 3 2 3 3 2 1 3 1 0 2 6 8 9 7 3 4 4 2 3 2 3 4 3 2 3 6 9 9 9 6 2 3 2 1 5 6 2 4 6 9
9 8 7 4 3 3 4 6 7 8 9 9 9 8 7 5 6 7 6 6 7 6 5 3 2 3 2 3 2 1 2 1 1 2 1 2 2 1 0 1 1 2 4 5 3 2 2 2 2 3 2 3 1 2 2 2 2 4 6 6 7 6 2 2 3 4 3 4 5 4 4 3 8 11 10 10 5 3 4 1 2 6 7 1 4 7 11
9 9 8 6 4 3 3 4 6 7 7 6 6 6 6 5 6 8 9 10 10 9 6 5 4 3 4 4 3 2 2 2 0 1 1 2 1 1 3 1 1 3 3 3 2 2 2 2 0 1 3 3 2 1 2 2 2 4 4 2 3 6 5 3 5 6 6 7 6 4 3 4 10 13 11 9 3 4 1 2 3 8 8 1 5 8 10
9 9 8 6 5 4 3 4 4 6 6 5 6 7 6 6 8 10 10 10 11 10 9 9 10 9 7 6 5 3 3 3 2 2 1 2 1 3 2 1 1 1 1 1 2 1 1 2 2 1 3 3 2 3 4 3 2 3 3 2 3 3 4 5 6 5 5 6 6 4 4 6 15 16 11 8 3 2 2 6 6 6 3 5 7 7 6
9 9 8 7 5 5 4 4 4 6 7 7 8 10 9 7 8 11 11 13 16 15 11 9 10 9 7 6 5 4 4 4 4 4 2 2 3 3 3 3 2 1 2 3 3 1 0 4 3 1 3 4 2 3 6 7 6 6 6 7 6 4 2 5 6 4 4 5 5 5 4 8 19 16 7 7 6 2 3 7 6 6 6 6 8 6 4
8 8 8 7 6 5 5 4 5 7 8 10 13 14 14 12 12 13 15 16 15 14 11 9 10 9 8 9 8 7 6 5 5 5 3 4 5 3 1 3 2 0 1 2 2 1 1 3 4 2 3 3 1 2 5 7 7 8 7 5 6 7 4 4 3 4 2 4 5 4 1 7 15 12 6 6 7 4 4 3 4 7 7 7 11 11 9
7 7 7 6 6 5 5 5 7 8 9 11 14 14 13 12 12 12 15 16 15 15 14 13 12 12 12 11 10 9 8 7 6 5 3 3 5 4 2 3 3 2 1 1 2 3 3 3 4 3 4 4 3 4 4 3 5 7 6 5 6 7 7 8 7 6 6 7 5 4 4 7 12 13 9 7 6 6 5 5 7 8 7 9 13 15 15
6 6 6 6 6 6 6 6 7 8 9 11 11 11 12 13 13 14 16 19 20 19 15 12 11 12 12 12 12 12 11 10 10 10 6 3 3 5 5 3 4 4 2 2 1 4 5 5 4 5 5 4 4 6 7 6 6 7 7 8 8 6 5 7 8 9 11 11 10 9 10 12 14 15 14 11 9 8 8 10 10 10 11 12 15 17 19
5 6 5 6 6 6 6 7 6 8 9 10 10 10 12 15 17 17 16 16 16 14 11 9 9 9 9 11 12 13 13 12 12 12 11 7 4 4 4 3 3 4 4 5 7 8 8 6 4 6 6 3 2 5 7 6 6 6 6 8 9 7 6 6 6 6 6 7 9 10 12 14 15 16 16 16 13 11 11 12 13 13 14 16 18 20 21
5 5 5 5 6 6 6 6 6 7 9 10 11 10 12 14 15 12 9 8 9 9 8 9 9 9 9 11 14 14 14 14 13 11 12 12 9 6 6 7 8 7 9 12 10 9 9 6 5 7 7 4 3 5 7 6 5 5 5 6 6 5 4 6 8 8 6 8 10 12 15 15 15 15 16 16 15 14 13 14 15 16 17 19 20 21 19
5 6 5 5 5 6 5 6 7 7 8 11 12 11 12 14 11 7 7 10 10 9 8 8 9 10 11 13 14 14 13 14 14 11 10 11 11 11 12 13 14 13 14 13 11 10 11 8 5 6 7 5 6 7 7 7 8 7 8 7 5 3 3 5 9 10 9 9 11 11 13 14 14 15 16 15 15 15 15 16 18 20 20 20 20 19 18
5 5 5 5 5 5 5 6 7 7 8 11 12 11 12 11 8 9 12 11 7 6 7 8 10 11 13 14 15 13 13 13 13 12 10 9 11 14 16 15 13 13 14 14 13 13 13 11 8 8 8 9 10 9 8 9 10 8 8 8 6 5 4 4 6 7 6 7 6 5 7 9 11 13 14 14 14 16 16 15 16 18 20 21 20 20 18
6 6 5 5 5 6 6 7 8 8 9 10 11 12 11 9 8 10 10 4 2 5 9 11 11 10 11 13 13 12 13 13 12 12 12 10 9 11 12 10 9 10 11 12 12 12 11 9 8 9 8 7 7 8 9 10 10 8 8 9 9 8 6 5 6 7 7 8 7 6 8 11 12 12 12 12 12 13 14 13 14 15 16 18 19 19 18
7 7 6 4 5 6 7 8 9 8 9 10 11 11 10 8 8 7 5 4 9 13 13 12 9 7 7 9 10 11 13 14 13 13 14 12 11 11 11 11 12 13 14 15 14 12 11 9 7 7 6 3 3 5 7 8 8 8 9 12 13 12 11 11 11 10 9 9 8 9 12 13 11 10 10 10 10 11 12 12 12 12 12 12 13 14 14
8 7 6 5 5 6 7 8 9 9 9 11 12 10 8 7 7 6 7 12 15 13 10 9 7 7 8 9 10 10 12 13 14 15 17 17 17 16 15 16 16 15 15 16 15 11 11 10 8 6 5 4 3 5 6 7 8 9 10 13 14 13 14 14 13 11 10 9 9 10 12 13 11 10 10 9 9 9 10 11 10 9 9 9 8 9 9
8 7 6 5 6 7 8 9 10 10 10 10 8 6 6 7 7 9 13 15 12 8 9 10 8 7 7 9 10 10 12 13 15 16 18 18 17 17 17 17 16 15 15 16 14 11 9 9 7 5 5 5 4 5 7 7 7 9 11 13 13 14 14 14 14 13 12 11 11 12 11 10 9 9 9 9 9 8 9 9 9 9 8 7 7 6 6
8 8 7 7 7 8 8 10 10 10 8 7 5 4 7 10 11 13 15 13 9 7 9 9 6 5 5 5 7 8 11 12 12 13 14 13 13 15 17 17 17 17 15 12 11 10 8 8 10 9 7 7 5 5 7 7 8 9 11 11 11 12 12 13 13 13 11 9 8 9 9 7 6 6 8 8 8 8 8 8 8 8 7 7 6 6 5
9 8 8 8 8 8 9 10 11 10 8 7 6 8 11 13 14 14 13 10 8 7 6 5 4 4 4 4 5 6 7 8 8 9 11 11 10 11 13 13 13 14 12 9 7 6 6 9 13 12 9 9 8 7 7 8 9 10 11 11 10 10 10 10 10 10 9 7 6 5 7 7 5 6 7 7 7 6 7 7 6 6 6 5 5 4 4
9 9 9 9 9 9 10 11 11 10 9 8 8 10 12 13 14 13 12 10 9 7 4 3 3 4 4 4 3 5 5 5 6 7 9 10 10 9 10 10 10 10 10 9 8 8 8 9 11 10 9 10 10 7 6 8 10 11 11 10 9 8 8 7 7 7 7 7 7 7 7 6 5 5 6 6 5 5 5 5 5 5 4 4 4 3 3
10 10 11 10 11 11 11 11 11 10 9 9 9 10 11 13 13 13 11 9 7 5 4 2 3 4 5 4 3 5 6 6 6 6 6 8 10 8 8 9 9 7 6 5 7 9 7 5 4 6 7 7 7 6 6 8 10 10 9 9 8 7 6 6 5 4 4 5 6 6 6 5 4 4 4 4 4 4 4 4 4 3 2 2 2 2 2
11 12 12 12 13 12 10 10 10 9 8 8 9 11 12 12 12 12 10 6 3 4 5 4 3 3 4 4 5 5 5 6 7 6 5 6 7 6 6 8 8 5 3 4 7 8 5 3 1 5 6 5 6 6 6 8 9 9 8 8 7 6 5 5 4 2 3 3 4 5 5 4 3 3 2 2 2 2 2 3 3 3 1 1 1 1 1
13 14 14 13 13 11 7 7 9 9 9 10 12 12 13 12 10 9 7 4 4 5 4 3 3 2 2 4 5 4 3 3 5 4 4 4 4 5 6 6 5 2 2 5 6 5 4 3 3 5 5 5 6 8 7 8 9 9 8 7 6 6 6 6 4 3 3 3 3 3 2 2 2 1 1 0 1 2 3 4 4 4 4 3 1 1 1
15 17 16 13 10 7 5 6 9 10 12 14 13 11 10 8 7 6 4 3 4 4 2 2 4 4 3 4 4 3 2 2 4 4 3 3 2 2 4 4 2 1 3 5 5 3 3 4 4 5 6 7 8 9 9 9 9 9 8 7 7 6 6 6 4 3 2 1 2 2 0 1 2 2 2 1 1 2 3 4 5 5 6 5 4 3 3
17 16 14 10 6 4 6 9 12 14 15 12 9 6 5 4 4 4 2 2 3 4 2 2 4 3 2 4 5 4 2 2 4 5 3 2 1 1 2 2 1 1 3 4 3 1 2 3 4 5 6 7 9 9 9 9 9 9 8 8 7 7 7 6 5 3 1 1 1 1 2 3 3 3 3 2 2 2 2 3 4 5 6 6 5 4 3
16 14 10 7 5 6 10 14 15 14 11 7 4 4 3 2 1 2 2 2 3 2 1 2 5 3 2 3 5 4 2 1 1 4 5 3 2 1 3 2 1 1 3 4 2 1 1 4 4 4 5 8 10 10 9 8 8 8 8 7 7 8 8 7 6 5 3 2 1 1 1 1 2 2 2 3 3 2 2 2 2 2 3 5 5 4 4
15 11 8 7 9 13 16 15 13 9 5 4 3 3 2 2 2 1 2 3 3 3 2 3 6 5 3 3 4 4 5 5 5 4 5 4 3 1 3 3 1 1 2 4 2 2 2 4 4 4 6 10 12 11 9 8 8 8 7 7 7 7 7 7 7 6 6 5 4 3 3 2 1 2 2 3 2 1 1 2 2 2 2 3 4 4 5
13 11 11 12 15 16 14 10 6 3 2 2 2 2 1 2 3 2 2 1 2 4 4 3 4 6 7 6 5 5 5 5 4 2 3 3 2 1 2 3 1 1 2 4 3 3 3 4 4 4 8 12 13 11 9 9 8 7 6 6 6 6 6 6 6 5 5 4 4 3 2 2 1 2 2 2 2 2 3 3 3 2 3 3 4 5 6
13 14 16 15 13 11 7 4 3 2 1 1 2 2 1 2 2 2 1 2 3 5 6 6 7 8 8 6 5 5 5 5 3 2 2 3 2 1 2 2 1 1 3 3 3 3 3 4 3 6 11 14 13 11 10 9 7 6 6 6 5 5 5 4 4 4 3 3 2 2 2 2 2 2 3 3 4 4 3 2 1 1 2 3 4 4 5
15 15 14 10 7 6 4 2 1 1 1 1 2 3 3 4 3 3 3 5 6 6 7 8 9 7 5 4 4 4 4 4 3 3 3 3 2 1 2 2 2 2 3 3 3 2 3 2 3 8 14 14 12 11 10 8 7 6 5 4 3 3 3 2 2 3 2 2 2 2 2 2 2 2 2 2 2 3 2 2 1 2 3 4 4 3 3
14 11 9 5 2 1 2 1 1 1 2 2 2 3 4 5 5 3 4 6 7 9 9 9 8 7 7 5 4 3 2 3 3 2 2 3 2 1 2 2 3 2 3 3 2 3 3 2 5 10 14 14 12 12 10 8 6 5 4 3 3 2 1 2 2 2 2 2 2 2 2 2 3 3 2 2 1 2 2 2 3 3 4 4 3 2 2
10 8 6 4 1 1 0 1 2 2 2 2 3 2 2 3 4 6 7 8 9 11 12 9 8 9 8 4 2 3 3 4 3 2 0 2 2 2 2 2 2 2 2 3 3 3 3 4 8 12 14 13 13 12 10 8 7 5 3 2 2 1 1 1 2 3 3 2 2 2 2 3 3 3 3 3 3 3 4 5 5 6 6 5 4 2 3
7 6 4 2 1 1 2 1 1 1 1 2 2 1 3 6 9 10 11 10 10 12 12 9 7 8 7 4 3 4 4 3 2 1 0 1 3 3 1 2 2 2 2 3 4 3 2 6 11 13 13 12 12 11 9 8 7 5 4 2 2 1 1 2 3 3 3 3 3 3 3 4 4 4 5 5 5 5 5 6 7 8 8 7 6 5 5
6 5 3 1 2 3 2 2 3 3 2 2 3 4 7 9 10 11 11 11 11 12 12 10 8 7 5 3 2 4 4 4 3 2 1 1 3 2 2 2 2 2 2 2 2 3 5 9 13 13 12 11 11 10 8 7 7 6 4 3 2 2 2 2 3 3 3 4 4 4 4 5 5 5 6 6 6 6 5 6 7 8 8 8 7 7 7
5 4 2 1 2 2 1 3 4 4 4 4 6 7 9 10 10 11 12 12 11 10 9 7 6 5 4 2 2 3 3 2 2 2 2 2 2 2 2 2 3 3 3 2 2 5 9 12 14 13 11 10 9 8 7 6 6 5 4 4 3 3 2 2 3 3 4 4 4 4 5 6 6 6 7 7 7 7 7 7 7 7 7 7 7 8 9
4 3 2 2 2 3 3 4 4 4 6 7 8 9 10 12 12 12 12 12 11 10 9 6 4 3 3 2 2 3 2 2 2 3 3 3 2 2 2 3 3 2 3 4 5 9 12 13 13 12 11 10 8 7 5 5 4 3 3 4 4 3 3 2 3 4 4 4 5 6 6 6 7 7 7 7 7 7 7 8 8 7 7 7 8 9 9
3 3 3 2 2 4 5 5 5 6 8 9 10 10 11 12 13 13 14 13 11 9 7 4 3 3 3 2 2 2 3 2 2 3 3 2 2 3 3 3 2 3 6 8 10 12 13 12 11 11 10 8 7 5 4 4 3 3 3 3 3 2 2 2 3 3 3 4 4 5 5 6 6 7 8 8 8 7 8 8 8 8 8 8 9 9 9
3 3 3 2 2 4 4 5 6 8 9 10 10 10 10 11 13 15 14 11 7 5 5 4 4 3 2 2 2 3 3 2 2 2 2 2 2 2 1 2 5 7 10 12 13 12 11 11 11 10 8 7 6 5 4 4 3 3 2 2 2 1 1 1 1 2 2 3 4 4 4 5 6 7 8 8 8 8 8 8 7 7 8 9 9 10 10
Wind_Direction
300 301 297 297 310 321 331 336 334 330 319 219 177 175 184 184 139 135 165 168 154 251 207 140 189 173 92 41 128 169 277 236 220 211 207 225 225 221 244 255 255 266 322 313 315 327 296 273 273 241 162 73 43 21 13 319 262 252 209 132 98 138 236 236 236 234 213 134 126 133 145 212 217 212 237 261 253 245 240 251 263 239 224 226 242 247 162
302 292 284 294 316 328 333 334 330 318 285 196 178 182 178 150 120 134 165 166 183 257 206 138 143 110 109 133 134 148 219 249 268 238 189 256 241 237 251 252 263 291 321 299 304 327 298 256 8 322 224 80 50 32 28 18 301 336 331 261 158 184 234 232 228 224 207 187 184 183 188 213 219 143 106 298 281 257 239 240 254 252 234 227 243 248 119
293 275 280 306 327 332 332 332 326 294 227 194 174 166 163 149 125 132 158 154 144 324 20 21 92 111 124 108 83 128 162 119 338 302 39 11 299 275 289 288 286 294 284 272 278 303 290 271 299 304 241 92 68 40 35 41 40 19 356 299 173 180 253 233 234 230 215 208 208 209 201 192 172 105 85 16 321 259 245 240 238 242 228 225 244 251 120
277 263 284 321 332 332 334 336 324 257 199 186 167 157 166 170 149 141 158 163 162 105 65 329 301 115 140 122 69 119 150 117 67 277 206 66 34 334 355 320 265 281 293 269 254 258 258 268 290 300 316 63 65 34 35 37 22 12 4 200 183 191 191 230 272 272 268 301 324 330 307 180 153 99 73 36 3 299 265 246 238 258 246 229 230 168 141
254 248 290 324 334 337 338 340 335 193 174 173 161 156 179 194 167 156 162 165 171 150 147 209 92 92 200 146 64 87 151 136 140 218 348 63 83 272 23 18 289 326 335 284 265 288 253 237 300 333 336 351 68 52 54 27 359 4 20 167 217 246 194 187 237 292 346 349 354 7 10 91 98 66 51 29 15 342 264 245 292 315 270 243 220 137 144
227 225 301 329 340 345 344 344 2 127 157 163 159 162 200 195 128 142 167 170 170 139 123 114 107 113 153 124 87 134 135 146 151 150 157 115 310 253 146 55 34 28 5 299 267 281 252 185 40 12 359 355 290 98 82 68 359 4 15 360 279 267 222 176 174 169 33 1 1 44 70 80 72 59 44 27 22 19 349 357 3 342 288 238 278 118 114
201 200 293 338 350 353 350 350 55 131 152 161 167 176 187 148 113 126 156 143 91 90 95 127 131 107 99 152 146 117 93 108 98 42 206 167 28 321 236 62 27 22 357 304 289 302 286 80 54 24 8 6 333 20 86 70 37 28 7 347 10 336 223 165 157 147 118 96 43 66 108 93 73 57 41 29 29 34 34 28 6 355 39 97 113 96 77
187 188 278 353 1 1 355 360 124 146 156 167 180 185 173 163 138 136 143 119 106 108 122 163 151 117 175 162 112 95 55 70 61 11 275 192 53 4 16 50 16 352 330 297 264 50 6 7 33 4 347 8 26 19 18 7 28 40 23 350 0 338 216 163 165 157 135 134 126 114 115 97 84 65 43 32 38 42 31 19 357 336 38 97 118 104 76
179 179 236 6 11 10 3 11 127 149 154 159 175 192 189 181 160 158 157 129 123 143 151 187 184 134 150 123 98 133 79 41 21 67 112 354 20 39 21 11 14 324 292 285 242 86 14 335 340 333 319 320 356 360 272 287 7 45 82 16 329 322 8 200 218 189 147 156 153 131 118 109 89 58 32 21 26 29 17 17 5 339 344 120 154 129 97
173 180 212 13 19 20 13 22 118 151 155 152 164 191 188 174 162 171 179 149 154 188 165 188 212 107 89 87 108 124 60 34 350 188 146 187 26 39 2 333 313 241 174 40 21 13 339 320 320 315 299 292 301 284 268 274 290 324 114 146 251 298 121 206 242 207 150 155 152 137 148 171 111 42 11 358 9 13 5 34 24 351 334 303 220 89 99
171 177 181 21 25 30 26 36 97 149 159 154 160 167 170 169 162 179 197 173 151 194 198 199 202 105 108 133 158 191 317 357 335 333 166 170 113 20 331 304 298 308 82 63 7 342 326 312 309 299 223 183 150 116 115 181 205 245 247 200 100 211 200 198 248 229 154 144 150 166 183 207 160 61 6 350 3 9 6 31 24 356 340 1 55 94 115
172 175 165 37 28 35 36 44 80 127 142 147 157 161 168 172 166 184 212 187 142 190 214 92 73 110 138 153 184 219 275 311 327 322 300 283 273 271 277 284 297 354 56 359 328 318 286 206 169 157 154 147 117 89 76 70 74 113 209 245 268 208 208 201 210 246 133 143 174 198 180 78 161 127 14 5 15 9 2 29 32 11 356 40 81 106 110
173 178 166 80 36 35 38 47 73 106 120 128 140 149 163 171 166 182 223 197 138 168 192 107 107 137 151 159 252 266 285 291 284 277 275 267 251 247 252 272 307 342 335 319 313 278 211 179 160 159 159 165 159 104 77 64 50 54 88 233 264 235 214 197 190 75 139 164 195 187 118 81 117 124 20 12 18 7 352 54 51 16 348 43 105 112 109
173 176 167 115 48 39 41 49 70 94 105 111 116 124 143 159 161 171 215 212 120 105 140 143 142 160 174 223 281 273 263 256 247 237 234 235 245 254 253 276 306 318 311 297 261 210 190 169 185 184 168 175 198 172 112 82 52 37 39 26 292 255 235 208 184 197 184 139 92 112 144 105 68 53 16 6 348 345 333 257 53 14 351 44 123 126 120
175 174 168 141 75 52 47 52 71 88 95 98 100 104 120 144 161 168 184 190 136 129 161 336 112 159 183 80 318 290 247 222 226 206 186 201 243 248 250 284 298 305 282 241 211 200 182 173 209 204 183 182 192 182 153 110 70 46 32 9 327 266 240 240 211 209 234 156 117 122 164 111 41 4 355 353 326 296 277 248 67 27 11 45 128 132 127
175 170 167 154 112 71 57 59 70 80 85 87 86 86 93 116 145 151 154 165 150 135 89 52 76 152 145 112 56 339 322 296 293 223 187 180 210 226 240 287 303 292 217 211 201 194 178 166 202 209 188 187 159 146 136 59 91 63 36 10 352 317 229 234 201 166 194 162 127 82 72 73 16 349 344 342 328 255 216 226 81 29 8 35 139 138 136
173 169 168 162 137 101 72 68 72 78 84 85 78 74 78 96 124 133 131 122 110 95 81 86 141 184 147 115 116 43 360 337 296 273 226 152 162 204 247 278 261 193 211 214 194 180 156 144 195 196 119 37 349 165 118 44 47 37 20 8 8 8 329 211 142 118 89 91 95 70 69 48 355 342 338 338 327 200 202 202 60 6 349 25 148 147 142
173 171 169 165 151 128 96 83 81 83 90 89 72 66 74 93 122 130 126 118 107 94 89 88 87 103 95 71 66 59 9 348 265 261 258 136 129 340 350 331 193 182 219 229 176 140 105 91 183 181 103 54 323 228 108 57 44 28 357 336 27 19 5 41 102 102 89 96 100 86 85 30 350 339 338 339 301 201 227 11 350 330 332 74 135 147 148
171 172 172 169 160 147 126 107 97 90 90 88 79 77 79 98 129 135 125 117 112 104 98 91 84 84 85 72 68 68 38 13 352 303 220 143 61 343 321 272 160 139 191 170 96 71 106 113 79 36 95 99 64 77 86 66 47 42 27 38 52 19 11 42 70 80 84 104 107 104 105 31 353 339 336 347 332 200 10 358 334 326 353 106 118 132 145
165 170 173 169 163 155 138 126 120 108 100 96 91 85 82 95 132 143 129 115 112 108 101 91 86 82 73 59 49 41 31 15 1 355 11 49 7 305 223 159 130 168 153 123 98 359 185 118 105 49 79 94 94 98 94 83 63 44 46 58 44 351 360 73 64 45 72 97 82 81 97 10 353 345 349 12 11 358 331 338 2 45 73 91 87 86 91
159 164 168 163 159 154 140 129 132 124 115 110 103 95 92 96 110 126 127 118 111 109 105 97 90 83 68 56 48 37 21 3 355 350 358 25 12 315 219 91 61 317 115 97 121 169 130 97 101 104 89 88 114 136 110 98 76 47 37 62 45 1 6 87 55 348 26 83 65 57 35 347 357 8 27 16 360 347 329 340 56 66 66 78 83 82 90
154 156 160 158 151 147 135 127 133 133 130 126 116 104 102 106 107 114 119 114 107 108 109 102 89 76 62 55 51 44 34 25 20 10 352 15 31 30 51 64 57 53 28 13 118 121 121 115 107 106 95 78 78 99 96 95 86 57 29 43 57 36 45 77 75 52 60 75 80 79 56 27 30 39 42 29 22 32 53 84 88 73 73 88 91 92 97
152 154 156 152 144 138 129 124 130 137 140 142 131 113 109 115 117 115 113 109 106 106 105 98 86 69 51 46 50 49 45 41 41 41 34 15 42 62 63 65 76 73 35 320 42 88 106 113 103 98 93 72 73 95 87 73 81 75 57 64 77 71 68 82 92 96 89 81 80 81 70 60 57 55 52 52 56 60 72 84 83 82 91 96 95 99 103
154 157 155 145 136 131 126 123 127 138 147 152 146 130 120 120 121 116 111 109 111 110 99 83 73 58 42 44 51 52 49 44 40 43 43 34 36 64 67 72 88 88 81 84 86 92 97 96 95 101 95 48 30 93 92 81 79 81 83 90 89 82 81 88 102 118 110 83 75 75 74 71 69 66 64 63 64 69 78 84 86 90 96 98 101 105 105
158 160 159 146 133 127 124 119 121 133 146 153 150 140 136 135 128 120 118 123 124 119 104 82 68 61 55 55 54 50 47 43 37 41 48 47 48 67 87 96 101 106 107 101 97 99 102 99 103 104 89 21 4 74 86 80 69 67 82 91 82 68 69 79 83 87 94 95 92 87 81 76 73 72 71 70 72 77 84 90 94 96 97 101 105 107 106
166 163 162 152 138 129 124 120 121 124 140 153 151 144 147 148 137 119 127 130 116 106 105 95 80 71 64 61 58 50 44 41 38 43 58 63 65 79 94 98 97 102 106 99 87 89 97 94 90 96 86 53 48 72 83 79 72 72 72 63 50 58 87 94 95 95 95 102 106 101 92 83 76 76 77 79 82 88 93 98 101 100 101 103 104 103 102
174 170 165 155 146 139 132 128 124 118 129 148 153 148 149 153 140 125 130 130 112 102 111 108 98 86 70 64 62 54 47 43 41 49 70 81 83 90 94 93 90 94 98 93 85 86 90 85 76 83 90 84 77 77 82 81 77 77 67 48 49 76 91 105 113 104 93 98 104 101 96 91 86 85 87 89 93 96 99 104 105 104 103 105 106 104 101
178 175 170 159 151 147 145 140 131 118 119 135 149 152 151 151 144 140 145 149 112 118 120 115 111 102 81 65 59 55 57 56 52 57 72 86 96 98 98 95 90 89 91 91 91 90 88 88 90 93 97 96 86 85 91 86 76 70 56 45 47 48 37 50 90 91 88 96 95 86 94 101 101 99 97 95 97 100 102 107 111 112 109 108 108 109 110
181 179 176 169 158 154 155 152 141 126 118 122 132 141 146 147 146 151 166 151 124 120 120 116 108 97 80 64 55 57 63 65 66 70 77 88 97 97 98 102 97 88 86 89 92 91 86 82 83 84 82 70 74 96 99 86 74 70 61 56 58 54 47 60 82 94 96 96 94 95 102 106 106 105 102 99 96 96 98 104 111 117 118 116 113 115 119
184 182 180 175 163 159 161 157 149 140 129 123 123 129 137 142 142 141 142 137 129 121 120 120 107 89 80 69 61 66 68 68 74 80 83 89 93 91 93 96 91 85 87 89 87 90 93 87 79 72 60 47 70 104 102 89 84 83 74 70 72 72 66 64 71 84 94 97 97 100 104 107 109 106 101 98 96 96 98 100 104 110 114 115 115 120 126
186 183 181 175 164 162 161 156 153 149 139 130 130 139 144 142 143 144 144 140 133 119 113 114 113 112 97 69 59 72 81 78 80 82 80 80 82 85 90 91 84 81 86 86 81 80 85 87 88 92 81 63 71 96 99 96 96 89 81 77 76 77 76 73 72 79 90 99 104 105 105 110 116 112 104 102 103 103 103 102 102 106 109 107 106 113 125
184 179 176 169 161 162 160 154 153 152 144 138 143 151 144 140 144 149 150 146 139 130 120 114 115 125 111 74 60 77 90 89 84 79 77 75 76 82 87 86 83 81 82 82 79 74 69 77 90 95 85 69 71 93 96 90 92 91 87 83 80 80 83 84 81 82 87 92 100 108 109 109 110 109 110 114 113 109 109 110 108 107 107 106 104 105 111
179 174 171 163 157 158 157 154 151 144 132 125 125 131 138 143 147 150 150 146 141 135 120 109 117 121 114 106 84 75 85 93 85 76 76 76 75 81 84 81 79 75 66 63 75 82 81 95 100 95 77 67 77 92 90 84 91 96 90 84 83 85 87 89 86 83 79 70 64 83 105 113 113 108 115 123 122 115 117 121 117 111 108 106 105 106 110
173 168 163 157 154 151 149 151 149 140 127 120 120 128 138 144 148 151 149 141 138 129 100 91 116 118 123 141 120 72 71 87 84 75 77 76 76 86 92 86 80 71 59 59 83 99 95 96 102 100 87 79 84 93 93 95 102 104 97 91 88 88 90 93 91 81 72 67 65 74 92 107 111 109 117 126 125 126 136 138 127 118 110 104 105 109 112
168 163 157 152 149 144 143 146 144 136 129 124 122 129 138 142 148 153 149 143 143 136 112 113 143 134 133 145 124 82 78 82 76 69 78 83 77 74 86 91 82 67 52 60 88 100 91 69 84 108 103 90 88 92 99 106 109 107 101 93 83 74 73 71 71 78 80 77 81 89 96 99 97 105 128 140 135 137 153 162 153 141 120 105 113 128 121
161 157 152 148 142 135 135 143 142 135 136 134 129 131 134 136 143 149 148 144 139 126 128 149 163 144 131 122 110 100 98 97 91 82 86 96 81 61 75 96 87 57 48 76 89 93 79 21 46 118 113 99 92 87 89 100 102 96 90 82 66 55 52 39 35 86 121 109 98 98 95 90 85 89 117 146 163 179 195 207 204 196 185 141 127 143 147
159 154 148 143 138 129 128 144 148 145 144 139 130 126 125 126 132 135 131 116 98 103 128 153 135 97 85 97 110 129 140 125 121 108 84 89 84 56 63 90 95 74 91 92 81 73 58 37 75 107 98 85 93 93 89 92 91 83 79 71 54 43 44 40 46 97 137 153 154 136 100 74 67 52 52 133 220 241 250 251 242 232 232 237 219 195 208
157 152 146 142 138 132 136 148 150 148 142 134 126 120 117 121 128 121 98 75 88 93 94 107 105 109 117 106 108 130 144 132 142 136 89 77 104 86 68 76 87 131 120 95 77 66 70 70 86 101 95 94 103 104 98 95 90 82 75 68 54 45 46 46 52 81 128 162 160 157 221 332 341 332 320 308 288 274 274 274 263 245 234 230 226 227 227
152 151 149 147 143 143 149 148 144 140 135 130 123 117 114 124 138 127 91 53 94 100 94 103 107 117 141 118 106 105 113 138 157 150 123 76 49 115 115 96 91 150 143 119 109 150 130 104 110 121 122 122 122 116 109 105 98 88 79 73 64 59 56 52 51 53 31 357 5 350 314 311 317 321 318 320 320 311 303 302 287 257 237 227 227 235 243
150 149 149 147 143 142 142 140 136 132 129 124 116 112 111 108 107 119 140 150 126 94 63 106 113 102 89 115 120 118 107 74 86 120 121 98 52 86 128 110 97 171 149 121 116 229 170 128 137 149 144 139 135 129 122 116 106 95 87 81 74 67 63 60 61 65 64 48 17 354 338 321 315 315 316 321 332 2 16 358 340 287 232 223 225 239 251
151 153 151 146 142 138 135 132 130 125 123 125 111 91 91 93 79 105 179 169 130 102 100 129 136 132 115 100 110 114 105 81 68 90 109 91 53 78 124 109 109 204 137 111 132 193 151 138 159 164 144 141 142 140 134 127 116 105 97 90 82 74 70 66 64 63 64 67 68 69 73 71 27 337 325 323 333 7 18 350 338 319 260 238 242 254 255
152 151 144 139 137 135 132 129 126 116 114 124 100 58 60 129 136 162 200 173 117 130 141 140 131 127 118 103 95 102 110 106 99 119 129 98 58 63 112 119 170 199 111 111 157 184 157 154 170 154 139 142 146 147 144 137 127 116 110 103 94 83 74 67 61 55 53 56 58 56 52 39 2 328 307 299 304 315 319 315 308 294 274 265 270 273 257
148 143 138 134 135 135 133 127 121 115 105 117 115 117 150 165 166 171 152 123 127 140 138 127 124 123 119 108 98 100 108 111 101 86 96 105 106 113 122 131 161 114 106 140 187 185 162 171 176 151 146 149 152 153 151 143 134 126 119 112 103 89 76 65 55 46 40 35 30 18 2 351 340 320 296 280 278 289 303 313 321 337 325 313 305 288 250
141 138 135 131 131 138 137 121 107 120 141 166 171 169 165 167 177 180 157 152 156 150 143 149 156 149 128 114 115 113 112 116 106 85 93 115 133 139 128 125 112 106 134 171 187 159 145 157 140 139 146 152 156 158 155 148 143 139 129 119 115 103 77 54 36 29 24 14 7 358 342 332 326 323 322 305 283 277 281 278 277 308 324 331 335 313 236
141 142 140 128 113 133 141 134 204 211 193 182 189 188 173 168 173 164 138 140 149 148 145 153 158 143 124 121 128 121 120 128 117 102 121 144 132 84 81 107 120 138 165 177 172 162 171 172 147 147 152 156 160 162 160 155 152 148 138 132 135 116 60 29 17 12 4 356 348 336 326 325 315 304 307 314 296 274 271 269 271 283 297 308 320 306 228
146 152 149 131 75 327 223 160 172 198 196 173 173 185 177 154 140 128 126 133 143 144 142 144 143 135 129 126 109 103 124 132 114 83 170 174 125 85 81 126 146 162 173 175 178 185 178 155 152 156 158 158 159 161 161 159 159 157 154 155 159 138 16 2 360 354 344 339 334 320 314 319 315 303 298 294 285 279 276 268 264 267 274 280 281 263 237
149 156 152 125 121 181 208 192 143 103 115 142 139 103 103 110 114 123 133 139 139 136 132 127 120 118 116 115 117 118 122 122 102 69 317 153 112 100 137 187 174 175 182 184 190 196 156 135 145 152 153 153 156 160 162 164 168 171 172 173 183 219 272 312 329 330 323 320 319 311 307 308 306 302 300 294 288 287 286 278 271 267 265 265 264 255 244
152 162 163 134 147 164 182 166 133 107 94 105 107 113 126 125 122 128 136 137 137 139 138 136 134 127 115 107 127 125 118 118 115 97 69 116 120 129 174 184 170 185 203 201 193 170 141 137 142 146 147 149 154 160 165 170 174 180 188 198 220 243 260 292 313 314 312 310 303 298 299 301 299 298 296 291 287 287 288 287 284 277 267 261 259 254 248
147 152 144 120 128 130 138 153 149 133 119 121 125 134 138 130 119 124 135 139 139 140 139 137 139 138 125 115 131 131 127 135 137 128 147 161 157 155 172 173 172 187 200 198 145 127 130 135 138 141 145 150 155 160 168 172 176 190 209 223 232 242 257 290 309 311 313 310 301 295 293 291 291 294 292 288 286 286 285 285 288 284 275 267 262 258 257
136 139 146 157 149 136 148 167 166 144 133 136 139 142 138 128 122 129 137 137 136 140 141 133 120 113 114 135 156 146 132 128 142 155 169 173 165 157 173 187 191 180 164 149 135 129 130 134 137 139 143 149 153 156 163 172 180 197 212 218 224 234 252 286 302 306 308 303 296 294 292 288 288 291 289 288 291 291 286 282 281 278 274 272 268 264 264
147 155 170 189 175 153 156 164 160 148 146 147 145 140 134 131 134 140 140 140 145 154 155 142 126 127 139 158 160 140 130 137 158 176 176 161 153 172 185 189 171 139 128 129 133 133 133 136 139 141 144 150 155 156 161 166 171 180 190 198 211 227 254 289 302 307 314 313 307 304 300 292 288 286 284 285 287 286 282 281 279 273 269 270 269 267 267
159 152 148 156 166 165 163 150 138 136 136 135 135 133 130 132 139 143 145 150 164 166 146 138 152 168 165 148 131 129 132 142 165 180 166 154 174 202 183 108 115 129 133 133 134 134 133 135 140 141 142 145 148 148 150 154 159 169 176 177 184 202 233 293 310 317 322 318 315 313 308 300 298 296 292 286 281 278 279 283 282 272 268 270 272 272 273